When you browse on this site, cookies collect data to enhance your experience and personalize the content and advertising you see.
Visit our Privacy Policy to learn more. By continuing to use the site, you agree to this use of cookies and data.
  • en Suisse
  • Liste des pays
  • À 7 jours
  • Température de l'eau
  • Carte météo
  • Widgets météo
  • user-avatar
    Se connecter

    Météo par heure à Podory

    Ce jour, 17 Août, Samedi

    Heure Température Précipitation Vent Pression Humidité
    00:00 +11°C° 0 mm 0 m/s 754 mmHg 81%
    01:00 +10°C° 0 mm 0 m/s 754 mmHg 82%
    02:00 +10°C° 0 mm 0 m/s 754 mmHg 81%
    03:00 +10°C° 0 mm 0 m/s 754 mmHg 82%
    04:00 +10°C° 0 mm 0 m/s 754 mmHg 83%
    05:00 +10°C° 0 mm 0 m/s 754 mmHg 84%
    06:00 +12°C° 0 mm 0 m/s 754 mmHg 77%
    07:00 +15°C° 0 mm 1 m/s 754 mmHg 70%
    08:00 +18°C° 0 mm 1 m/s 754 mmHg 63%
    09:00 +20°C° 0 mm 1 m/s 754 mmHg 58%
    10:00 +21°C° 0 mm 1 m/s 754 mmHg 52%
    11:00 +21°C° 0 mm 2 m/s 754 mmHg 47%
    12:00 +23°C° 0 mm 1 m/s 754 mmHg 45%
    13:00 +23°C° 0 mm 1 m/s 754 mmHg 43%
    14:00 +24°C° 0 mm 1 m/s 753 mmHg 42%
    15:00 +23°C° 0 mm 1 m/s 753 mmHg 45%
    16:00 +23°C° 0 mm 1 m/s 753 mmHg 49%
    17:00 +23°C° 0 mm 1 m/s 753 mmHg 53%
    18:00 +20°C° 0 mm 1 m/s 753 mmHg 60%
    19:00 +18°C° 0 mm 1 m/s 753 mmHg 68%
    20:00 +15°C° 0 mm 1 m/s 753 mmHg 75%
    21:00 +14°C° 0 mm 1 m/s 752 mmHg 79%
    22:00 +14°C° 0 mm 1 m/s 752 mmHg 82%
    23:00 +13°C° 0 mm 1 m/s 752 mmHg 85%

    Demain, 18 Août, Dimanche

    Heure Température Précipitation Vent Pression Humidité
    00:00 +13°C° 0 mm 1 m/s 752 mmHg 86%
    01:00 +12°C° 0 mm 1 m/s 752 mmHg 87%
    02:00 +12°C° 0 mm 1 m/s 752 mmHg 88%
    03:00 +11°C° 0 mm 1 m/s 752 mmHg 88%
    04:00 +11°C° 0 mm 1 m/s 752 mmHg 88%
    05:00 +11°C° 0 mm 1 m/s 752 mmHg 88%
    06:00 +13°C° 0 mm 1 m/s 751 mmHg 81%
    07:00 +15°C° 0 mm 1 m/s 751 mmHg 73%
    08:00 +16°C° 0 mm 0 m/s 751 mmHg 66%
    09:00 +18°C° 0 mm 0 m/s 751 mmHg 60%
    10:00 +20°C° 0 mm 0 m/s 751 mmHg 54%
    11:00 +22°C° 0 mm 0 m/s 751 mmHg 48%
    12:00 +24°C° 0 mm 1 m/s 751 mmHg 47%
    13:00 +24°C° 0 mm 1 m/s 750 mmHg 45%
    14:00 +24°C° 0 mm 1 m/s 750 mmHg 43%
    15:00 +24°C° 0 mm 1 m/s 750 mmHg 46%
    16:00 +24°C° 0 mm 1 m/s 750 mmHg 49%
    17:00 +23°C° 0 mm 1 m/s 750 mmHg 53%
    18:00 +21°C° 0 mm 1 m/s 750 mmHg 58%
    19:00 +19°C° 0 mm 1 m/s 750 mmHg 64%
    20:00 +16°C° 0 mm 1 m/s 750 mmHg 70%
    21:00 +16°C° 0 mm 1 m/s 750 mmHg 73%
    22:00 +15°C° 0 mm 2 m/s 750 mmHg 75%
    23:00 +15°C° 0 mm 2 m/s 751 mmHg 78%

    Après-demain, 19 Août, Lundi

    Heure Température Précipitation Vent Pression Humidité
    00:00 +15°C° 0 mm 2 m/s 751 mmHg 82%
    01:00 +15°C° 0 mm 2 m/s 751 mmHg 85%
    02:00 +15°C° 0 mm 2 m/s 750 mmHg 89%
    03:00 +14°C° 0 mm 3 m/s 750 mmHg 90%
    04:00 +14°C° 0 mm 3 m/s 750 mmHg 90%
    05:00 +14°C° 0 mm 3 m/s 750 mmHg 91%
    06:00 +16°C° 0 mm 3 m/s 750 mmHg 88%
    07:00 +17°C° 0 mm 4 m/s 750 mmHg 84%
    08:00 +18°C° 0 mm 4 m/s 750 mmHg 81%
    09:00 +19°C° 0 mm 4 m/s 750 mmHg 79%
    10:00 +20°C° 0 mm 4 m/s 751 mmHg 78%
    11:00 +21°C° 0 mm 4 m/s 751 mmHg 76%
    12:00 +21°C° 0 mm 4 m/s 751 mmHg 76%
    13:00 +21°C° 0 mm 3 m/s 751 mmHg 76%
    14:00 +22°C° 0 mm 3 m/s 751 mmHg 77%
    15:00 +22°C° 0.2 mm 3 m/s 752 mmHg 79%
    16:00 +24°C° 0.2 mm 3 m/s 752 mmHg 80%
    17:00 +24°C° 0.2 mm 3 m/s 752 mmHg 82%
    18:00 +23°C° 0.3 mm 2 m/s 752 mmHg 87%
    19:00 +21°C° 0.3 mm 2 m/s 752 mmHg 92%
    20:00 +19°C° 0.3 mm 2 m/s 753 mmHg 96%
    21:00 +19°C° 0 mm 2 m/s 753 mmHg 96%
    22:00 +18°C° 0 mm 2 m/s 753 mmHg 96%
    23:00 +18°C° 0 mm 1 m/s 754 mmHg 97%

    20 Août, Mardi

    Heure Température Précipitation Vent Pression Humidité
    00:00 +18°C° 0 mm 1 m/s 754 mmHg 96%
    01:00 +18°C° 0 mm 1 m/s 754 mmHg 96%
    02:00 +15°C° 0 mm 0 m/s 754 mmHg 95%
    03:00 +15°C° 0.2 mm 0 m/s 755 mmHg 96%
    04:00 +16°C° 0.2 mm 1 m/s 755 mmHg 96%
    05:00 +16°C° 0.2 mm 1 m/s 755 mmHg 96%
    06:00 +18°C° 0 mm 1 m/s 755 mmHg 94%
    07:00 +19°C° 0 mm 1 m/s 755 mmHg 92%
    08:00 +20°C° 0 mm 1 m/s 756 mmHg 90%
    09:00 +22°C° 0 mm 1 m/s 756 mmHg 81%
    10:00 +23°C° 0 mm 1 m/s 756 mmHg 72%
    11:00 +25°C° 0 mm 1 m/s 756 mmHg 63%
    12:00 +25°C° 0 mm 1 m/s 756 mmHg 61%
    13:00 +26°C° 0 mm 1 m/s 756 mmHg 58%
    14:00 +26°C° 0 mm 1 m/s 756 mmHg 55%
    15:00 +26°C° 0 mm 1 m/s 756 mmHg 59%
    16:00 +25°C° 0 mm 1 m/s 756 mmHg 63%
    17:00 +25°C° 0 mm 1 m/s 756 mmHg 66%
    18:00 +23°C° 0 mm 1 m/s 756 mmHg 71%
    19:00 +21°C° 0 mm 1 m/s 756 mmHg 76%
    20:00 +19°C° 0 mm 1 m/s 756 mmHg 81%
    21:00 +18°C° 0 mm 1 m/s 756 mmHg 83%
    22:00 +18°C° 0 mm 1 m/s 757 mmHg 85%
    23:00 +16°C° 0 mm 1 m/s 757 mmHg 87%

    21 Août, Mercredi

    Heure Température Précipitation Vent Pression Humidité
    00:00 +15°C° 0 mm 1 m/s 757 mmHg 86%
    01:00 +15°C° 0 mm 1 m/s 757 mmHg 84%
    02:00 +14°C° 0 mm 1 m/s 757 mmHg 83%
    03:00 +14°C° 0 mm 1 m/s 757 mmHg 84%
    04:00 +14°C° 0 mm 1 m/s 757 mmHg 85%
    05:00 +14°C° 0 mm 1 m/s 757 mmHg 86%
    06:00 +15°C° 0 mm 1 m/s 757 mmHg 82%
    07:00 +18°C° 0 mm 1 m/s 757 mmHg 78%
    08:00 +19°C° 0 mm 2 m/s 757 mmHg 75%
    09:00 +20°C° 0 mm 2 m/s 757 mmHg 74%
    10:00 +20°C° 0 mm 2 m/s 756 mmHg 73%
    11:00 +21°C° 0 mm 2 m/s 756 mmHg 72%
    12:00 +21°C° 0.3 mm 2 m/s 755 mmHg 79%
    13:00 +20°C° 0.3 mm 3 m/s 755 mmHg 86%
    14:00 +19°C° 0.3 mm 3 m/s 754 mmHg 92%
    15:00 +19°C° 1.8 mm 3 m/s 753 mmHg 93%
    16:00 +19°C° 1.8 mm 3 m/s 753 mmHg 94%
    17:00 +19°C° 1.8 mm 3 m/s 752 mmHg 95%
    18:00 +18°C° 1.1 mm 4 m/s 752 mmHg 96%
    19:00 +15°C° 1.1 mm 4 m/s 752 mmHg 96%
    20:00 +14°C° 1.1 mm 5 m/s 752 mmHg 97%
    21:00 +13°C° 1 mm 4 m/s 752 mmHg 97%
    22:00 +13°C° 1 mm 4 m/s 753 mmHg 97%
    23:00 +13°C° 1 mm 4 m/s 753 mmHg 97%

    22 Août, Jeudi

    Heure Température Précipitation Vent Pression Humidité
    00:00 +13°C° 0 mm 4 m/s 754 mmHg 97%
    01:00 +13°C° 0 mm 4 m/s 754 mmHg 96%
    02:00 +13°C° 0 mm 4 m/s 755 mmHg 96%
    03:00 +12°C° 0 mm 3 m/s 755 mmHg 97%
    04:00 +12°C° 0 mm 3 m/s 756 mmHg 97%
    05:00 +12°C° 0 mm 2 m/s 756 mmHg 97%
    06:00 +13°C° 0 mm 2 m/s 757 mmHg 95%
    07:00 +14°C° 0 mm 2 m/s 757 mmHg 93%
    08:00 +14°C° 0 mm 2 m/s 757 mmHg 90%
    09:00 +16°C° 0 mm 3 m/s 757 mmHg 81%
    10:00 +18°C° 0 mm 3 m/s 758 mmHg 71%
    11:00 +20°C° 0 mm 3 m/s 758 mmHg 61%
    12:00 +20°C° 0 mm 4 m/s 758 mmHg 58%
    13:00 +21°C° 0 mm 4 m/s 758 mmHg 56%
    14:00 +22°C° 0 mm 4 m/s 758 mmHg 53%
    15:00 +21°C° 0 mm 4 m/s 758 mmHg 56%
    16:00 +21°C° 0 mm 3 m/s 758 mmHg 59%
    17:00 +20°C° 0 mm 3 m/s 758 mmHg 62%
    18:00 +18°C° 0 mm 2 m/s 758 mmHg 68%
    19:00 +16°C° 0 mm 2 m/s 758 mmHg 73%
    20:00 +14°C° 0 mm 2 m/s 758 mmHg 79%
    21:00 +14°C° 0 mm 2 m/s 759 mmHg 81%
    22:00 +13°C° 0 mm 2 m/s 759 mmHg 84%
    23:00 +12°C° 0 mm 1 m/s 759 mmHg 87%
    Voir plus